Location: George Washington National Forest Helicopter Landing Site
(38.6463°N, 79.0851°W)
Time: 08:37:33
(UTC-04:00)

Vanguard 2 - All Passes

Search period start: 21 August 2019 00:00
Search period end: 31 August 2019 00:00
Orbit: 553 x 2938 km, 32.9° (Epoch: 20 August)

Date Brightness Start Highest point End Pass type
(mag) Time Alt. Az. Time Alt. Az. Time Alt. Az.
21 Aug - 13:18:53 10° SSW 13:23:59 30° SSE 13:31:35 10° E daylight
21 Aug - 15:25:06 10° WSW 15:32:23 61° S 15:44:43 10° E daylight
21 Aug - 17:32:53 10° W 17:42:31 61° S 17:57:52 10° ESE daylight
21 Aug - 19:42:02 10° W 19:53:32 40° SSW 20:08:57 10° SE daylight
21 Aug - 21:55:26 10° WSW 22:04:26 18° SW 22:14:19 10° S visible
22 Aug - 13:36:13 10° SW 13:41:35 38° SSE 13:50:00 10° E daylight
22 Aug - 15:42:55 10° WSW 15:50:20 63° S 16:02:56 10° E daylight
22 Aug - 17:50:52 10° W 18:00:34 55° SSW 18:15:44 10° ESE daylight
22 Aug - 20:00:29 10° W 20:11:30 33° SSW 20:25:47 10° SSE visible
22 Aug - 22:17:40 10° WSW 22:22:15 12° SW 22:27:02 10° SSW visible
23 Aug - 11:49:29 10° S 11:52:00 14° SE 11:54:56 10° ESE daylight
23 Aug - 13:53:45 10° SW 13:59:18 46° SSE 14:08:17 10° E daylight
23 Aug - 16:00:47 10° W 16:08:20 62° S 16:21:07 10° ESE daylight
23 Aug - 18:08:54 10° W 18:18:35 48° SSW 18:33:23 10° SE daylight
23 Aug - 20:19:17 10° W 20:29:25 26° SSW 20:42:07 10° SSE visible
24 Aug - 12:05:54 10° SSW 12:09:27 20° SE 12:14:04 10° E daylight
24 Aug - 14:11:25 10° WSW 14:17:07 52° SSE 14:26:31 10° E daylight
24 Aug - 16:18:41 10° W 16:26:20 59° S 16:39:11 10° ESE daylight
24 Aug - 18:27:04 10° W 18:36:37 41° SSW 18:50:46 10° SE daylight
24 Aug - 20:38:42 10° WSW 20:47:22 19° SW 20:57:41 10° S visible
25 Aug - 12:22:58 10° SSW 12:27:01 27° SSE 12:32:38 10° E daylight
25 Aug - 14:29:11 10° WSW 14:35:00 56° S 14:44:43 10° E daylight
25 Aug - 16:36:37 10° W 16:44:21 54° S 16:57:08 10° ESE daylight
25 Aug - 18:45:24 10° W 18:54:38 33° SSW 19:07:48 10° SSE daylight
25 Aug - 20:59:36 10° WSW 21:05:19 13° SW 21:11:40 10° SSW visible
26 Aug - 12:40:21 10° SW 12:44:41 35° SSE 12:50:58 10° E daylight
26 Aug - 14:47:00 10° WSW 14:52:56 57° S 15:02:52 10° ESE daylight
26 Aug - 16:54:37 10° W 17:02:22 47° SSW 17:14:54 10° SE daylight
26 Aug - 19:04:01 10° W 19:12:39 26° SSW 19:24:21 10° SSE daylight
27 Aug - 10:53:30 10° SSE 10:55:08 12° SE 10:56:55 10° ESE daylight
27 Aug - 12:57:55 10° SW 13:02:25 42° SSE 13:09:11 10° E daylight
27 Aug - 15:04:52 10° W 15:10:53 55° S 15:20:56 10° ESE daylight
27 Aug - 17:12:43 10° W 17:20:23 40° SSW 17:32:24 10° SE daylight
27 Aug - 19:23:10 10° WSW 19:30:40 20° SSW 19:40:13 10° S daylight
28 Aug - 11:09:52 10° SSW 11:12:43 18° SSE 11:16:05 10° ESE daylight
28 Aug - 13:15:38 10° WSW 13:20:15 47° S 13:27:21 10° E daylight
28 Aug - 15:22:46 10° W 15:28:52 50° S 15:38:55 10° ESE daylight
28 Aug - 17:30:57 10° W 17:38:25 32° SSW 17:49:35 10° SE daylight
28 Aug - 19:43:31 10° WSW 19:48:43 14° SSW 19:54:45 10° S daylight
29 Aug - 11:26:59 10° SSW 11:30:22 25° SSE 11:34:34 10° ESE daylight
29 Aug - 13:33:24 10° WSW 13:38:08 50° S 13:45:27 10° ESE daylight
29 Aug - 15:40:44 10° W 15:46:51 44° SSW 15:56:45 10° SE daylight
29 Aug - 17:49:28 10° WSW 17:56:28 25° SSW 18:06:20 10° SSE daylight
30 Aug - 11:44:25 10° SW 11:48:07 32° SSE 11:52:49 10° E daylight
30 Aug - 13:51:16 10° WSW 13:56:03 49° S 14:03:30 10° ESE daylight
30 Aug - 15:58:47 10° W 16:04:50 37° SSW 16:14:21 10° SE daylight
30 Aug - 18:08:28 10° WSW 18:14:31 19° SSW 18:22:25 10° S daylight
